Flight Track Log - Related Links

Times and Time Zones

All times are in EDT time to prevent confusion due to time zone crossing. See the N731P flight status page for this flight to view local times or setup timezone preferences in your user account.

Time Position Orientation Groundspeed Altitude Reporting Facility
EDT Latitude Longitude Course Direction KTS MPH feet Rate Location/Type
Sun 04:55:20 PM 29.6064 -95.2469 337° Northwest 128 147 2,200  Level Houston Center
Sun 04:56:10 PM 29.5856 -95.2278 141° Southeast 133 153 3,100 482 Climbing Houston Center
Sun 04:57:12 PM 29.5856 -95.1789 90° East 157 181 3,100 290 Level Houston Center
Sun 04:58:14 PM 29.5967 -95.1192 78° East 163 188 3,700 677 Climbing Houston Center
Sun 04:59:16 PM 29.6211 -95.0906 45° Northeast 158 182 4,500 726 Climbing Houston Center
Sun 05:00:00 PM 29.8772 -95.3719 337° Northwest  Level FlightAware Approximate
Sun 05:00:18 PM 29.6603 -95.1117 335° Northwest 158 182 5,200  Level Houston Center
Sun 05:01:20 PM 29.7003 -95.1314 337° Northwest 158 182 5,900 774 Climbing Houston Center
Sun 05:02:22 PM 29.7494 -95.1511 341° North 159 183 6,800 774 Climbing Houston Center
Sun 05:03:24 PM 29.7908 -95.1636 345° North 156 180 7,500 600 Climbing Houston Center
Sun 05:04:32 PM 29.8375 -95.1803 343° North 154 177 8,100 339 Climbing Houston Center
Sun 05:05:28 PM 29.8756 -95.2069 329° Northwest 174 200 8,200 52 Climbing Houston Center
Sun 05:06:28 PM 29.9206 -95.2378 329° Northwest 182 209 8,200  Level Houston Center
Sun 05:07:30 PM 29.9675 -95.2681 331° Northwest 184 212 8,200  Level Houston Center
Sun 05:08:34 PM 30.0114 -95.2978 330° Northwest 181 208 8,200  Level Houston Center
Sun 05:09:36 PM 30.0553 -95.3275 330° Northwest 183 211 8,200  Level Houston Center
Sun 05:10:38 PM 30.0989 -95.3567 330° Northwest 181 208 8,200  Level Houston Center
Sun 05:11:40 PM 30.1414 -95.3850 330° Northwest 179 206 8,200  Level Houston Center
Sun 05:12:42 PM 30.1836 -95.4156 328° Northwest 179 206 8,200  Level Houston Center
Sun 05:13:44 PM 30.2281 -95.4600 319° Northwest 182 209 8,200  Level Houston Center
Sun 05:14:46 PM 30.2731 -95.4897 330° Northwest 183 211 8,200  Level Houston Center
Sun 05:15:47 PM 30.3175 -95.5158 333° Northwest 181 208 8,200  Level Houston Center
Sun 05:16:48 PM 30.3664 -95.5464 332° Northwest 186 214 8,200  Level Houston Center
Sun 05:17:49 PM 30.4133 -95.5769 331° Northwest 192 221 8,200  Level Houston Center
Sun 05:18:55 PM 30.4558 -95.6019 333° Northwest 189 217 8,200  Level Houston Center
Sun 05:19:57 PM 30.5136 -95.6375 332° Northwest 195 224 8,200  Level Houston Center
Sun 05:20:59 PM 30.5606 -95.6656 333° Northwest 191 220 8,200  Level Houston Center
Sun 05:22:01 PM 30.6081 -95.6906 336° Northwest 188 216 8,200  Level Houston Center
Sun 05:23:03 PM 30.6569 -95.7169 335° Northwest 194 223 8,200  Level Houston Center
Sun 05:24:05 PM 30.7067 -95.7431 336° Northwest 190 219 8,200  Level Houston Center
Sun 05:25:07 PM 30.7539 -95.7692 335° Northwest 188 216 8,200  Level Houston Center
Sun 05:26:09 PM 30.8111 -95.8003 335° Northwest 189 217 8,200  Level Houston Center
Sun 05:27:11 PM 30.8608 -95.8267 336° Northwest 194 223 8,200  Level Houston Center
Sun 05:28:14 PM 30.9108 -95.8531 336° Northwest 195 224 8,200  Level Houston Center
Sun 05:29:16 PM 30.9639 -95.8681 346° North 194 223 8,200  Level Houston Center
Sun 05:30:18 PM 31.0153 -95.8833 346° North 191 220 8,200  Level Houston Center
Sun 05:31:20 PM 31.0647 -95.8972 346° North 185 213 8,200  Level Houston Center
Sun 05:32:22 PM 31.1269 -95.9144 347° North 190 219 8,200  Level Houston Center
Sun 05:33:24 PM 31.1786 -95.9289 347° North 190 219 8,200  Level Houston Center
Sun 05:34:26 PM 31.2300 -95.9433 346° North 190 219 8,200  Level Houston Center
Sun 05:35:28 PM 31.2817 -95.9583 346° North 190 219 8,200 48 Level Houston Center
Sun 05:36:30 PM 31.3308 -95.9717 347° North 184 212 8,300  Climbing Houston Center
Sun 05:37:32 PM 31.3819 -95.9872 345° North 187 215 8,200 -48 Descending Houston Center
Sun 05:38:34 PM 31.4331 -96.0019 346° North 189 217 8,200  Level Houston Center
Sun 05:39:36 PM 31.4956 -96.0194 347° North 190 219 8,200  Level Houston Center
Sun 05:40:38 PM 31.5472 -96.0336 347° North 190 219 8,200  Level Houston Center
Sun 05:41:40 PM 31.5981 -96.0481 346° North 188 216 8,200  Level Houston Center
Sun 05:42:42 PM 31.6483 -96.0625 346° North 187 215 8,200  Level Houston Center
Sun 05:43:44 PM 31.6983 -96.0772 346° North 186 214 8,200  Level Houston Center
Sun 05:44:46 PM 31.7478 -96.0911 347° North 183 211 8,200  Level Houston Center
Sun 05:45:48 PM 31.8058 -96.1075 347° North 183 211 8,200  Level Houston Center
Sun 05:46:50 PM 31.8533 -96.1214 346° North 178 205 8,200 -145 Level Houston Center
Sun 05:47:52 PM 31.9036 -96.1353 347° North 180 207 7,900 -242 Descending Houston Center
Sun 05:48:54 PM 31.9481 -96.1475 347° North 183 211 7,700 -244 Descending Fort Worth Center
Sun 05:49:55 PM 32.0089 -96.1689 343° North 183 211 7,400 -300 Descending Fort Worth Center
Sun 05:50:54 PM 32.0611 -96.1853 345° North 183 211 7,100 -151 Descending Fort Worth Center
Sun 05:51:54 PM 32.1136 -96.2017 345° North 188 216 7,100  Level Fort Worth Center
Sun 05:52:54 PM 32.1639 -96.2256 338° Northwest 188 216 7,100  Level Fort Worth Center
Sun 05:53:54 PM 32.2122 -96.2544 333° Northwest 188 216 7,100  Level Fort Worth Center
Sun 05:54:54 PM 32.2606 -96.2783 337° Northwest 193 222 7,100  Level Fort Worth Center
Sun 05:55:55 PM 32.3086 -96.3047 335° Northwest 193 222 7,100  Level Fort Worth Center
Sun 05:56:54 PM 32.3589 -96.3289 338° Northwest 193 222 7,100  Level Fort Worth Center
Sun 05:57:54 PM 32.4072 -96.3553 335° Northwest 193 222 7,100  Level Fort Worth Center
Sun 05:58:55 PM 32.4556 -96.3817 335° Northwest 193 222 7,100 -250 Level Fort Worth Center
Sun 05:59:54 PM 32.5058 -96.4133 332° Northwest 193 222 6,600 -454 Descending Fort Worth Center
Sun 06:00:54 PM 32.5561 -96.4422 334° Northwest 198 228 6,200 -446 Descending Fort Worth Center
Sun 06:01:55 PM 32.6044 -96.4714 333° Northwest 198 228 5,700 -450 Descending Fort Worth Center
Sun 06:02:54 PM 32.6547 -96.5031 332° Northwest 198 228 5,300 -300 Descending Fort Worth Center
Sun 06:03:55 PM 32.6906 -96.5494 313° West 198 228 5,100 -149 Descending Fort Worth Center
Sun 06:04:55 PM 32.7264 -96.5936 314° West 193 222 5,000 -59 Descending Fort Worth Center
Sun 06:05:37 PM 32.7500 -96.6333 305° West 183 211 5,000 -63 Level Dallas / Fort Worth TRACON
Sun 06:06:31 PM 32.7833 -96.6667 320° Northwest 193 222 4,900 -316 Descending Dallas / Fort Worth TRACON
Sun 06:07:31 PM 32.8167 -96.7167 308° West 207 238 4,400 -550 Descending Dallas / Fort Worth TRACON
Sun 06:08:31 PM 32.8667 -96.7667 320° Northwest 198 228 3,800 -619 Descending Dallas / Fort Worth TRACON
Sun 06:09:37 PM 32.9000 -96.8167 308° West 151 174 3,100 -1,250 Descending Dallas / Fort Worth TRACON
Sun 06:10:31 PM 32.8833 -96.8667 248° West 153 176 1,300 -2,000 Descending Dallas / Fort Worth TRACON

Login

Don't have an account? Register now (free) for customized features, flight alerts, and more!